TimeEDT,TemperatureF,Dew PointF,Humidity,Sea Level PressureIn,VisibilityMPH,Wind Direction,Wind SpeedMPH,Gust SpeedMPH,PrecipitationIn,Events,Conditions,WindDirDegrees,DateUTC
12:51 AM,26.1,18.0,71,29.80,10.0,West,4.6,-,N/A,,Scattered Clouds,270,2013-03-20 04:51:00
1:51 AM,23.0,17.1,78,29.80,10.0,West,4.6,-,N/A,,Scattered Clouds,270,2013-03-20 05:51:00
2:51 AM,25.0,17.1,72,29.80,10.0,West,5.8,-,N/A,,Mostly Cloudy,270,2013-03-20 06:51:00
3:51 AM,23.0,16.0,74,29.79,10.0,West,3.5,-,N/A,,Partly Cloudy,270,2013-03-20 07:51:00
4:51 AM,23.0,16.0,74,29.79,10.0,West,4.6,-,N/A,,Scattered Clouds,280,2013-03-20 08:51:00
5:51 AM,21.9,15.1,75,29.80,10.0,Calm,Calm,-,N/A,,Scattered Clouds,0,2013-03-20 09:51:00
6:51 AM,23.0,15.1,72,29.81,10.0,West,5.8,-,N/A,,Overcast,270,2013-03-20 10:51:00
7:51 AM,25.0,17.1,72,29.81,10.0,WSW,6.9,-,N/A,,Mostly Cloudy,240,2013-03-20 11:51:00
8:51 AM,25.0,16.0,69,29.81,10.0,West,10.4,-,N/A,,Mostly Cloudy,270,2013-03-20 12:51:00
9:51 AM,27.0,16.0,63,29.81,10.0,West,11.5,-,N/A,,Mostly Cloudy,260,2013-03-20 13:51:00
10:51 AM,28.9,17.1,61,29.80,10.0,West,17.3,24.2,N/A,,Mostly Cloudy,270,2013-03-20 14:51:00
11:51 AM,32.0,18.0,56,29.80,10.0,WSW,12.7,24.2,N/A,,Mostly Cloudy,250,2013-03-20 15:51:00
12:51 PM,33.1,17.1,52,29.80,10.0,West,13.8,-,N/A,,Mostly Cloudy,270,2013-03-20 16:51:00
1:51 PM,34.0,17.1,50,29.79,10.0,West,15.0,-,N/A,,Mostly Cloudy,270,2013-03-20 17:51:00
2:51 PM,34.0,18.0,52,29.78,10.0,West,13.8,-,N/A,,Mostly Cloudy,260,2013-03-20 18:51:00
3:51 PM,36.0,17.1,46,29.78,10.0,West,17.3,25.3,0.00,,Mostly Cloudy,260,2013-03-20 19:51:00
4:51 PM,35.1,19.9,54,29.79,10.0,West,9.2,-,0.00,,Mostly Cloudy,280,2013-03-20 20:51:00
5:51 PM,34.0,16.0,48,29.79,10.0,West,12.7,-,N/A,,Mostly Cloudy,260,2013-03-20 21:51:00
6:51 PM,30.9,21.0,67,29.81,10.0,NW,6.9,-,0.00,,Scattered Clouds,310,2013-03-20 22:51:00
7:51 PM,30.0,19.0,64,29.81,10.0,WNW,8.1,-,N/A,,Scattered Clouds,290,2013-03-20 23:51:00
8:51 PM,28.9,18.0,64,29.82,10.0,West,8.1,-,N/A,,Partly Cloudy,270,2013-03-21 00:51:00
9:51 PM,28.0,17.1,63,29.82,10.0,West,3.5,-,N/A,,Partly Cloudy,280,2013-03-21 01:51:00
10:51 PM,21.0,15.1,78,29.83,10.0,WSW,3.5,-,N/A,,Partly Cloudy,250,2013-03-21 02:51:00
11:51 PM,21.0,17.1,85,29.83,10.0,Calm,Calm,-,N/A,,Scattered Clouds,0,2013-03-21 03:51:00